Location: Chmeln�
(49.6483°N, 14.9871°E)
Time: 05:37:19
(UTC+00:00)

Lacrosse 5 rocket - Pass Details

Date: 17 January 2021
Orbit: 465 x 630 km, 57.0° (Epoch: 06 March)

Event Time Altitude Azimuth Distance (km) Brightness Sun altitude
Exits shadow 05:34:00 17° 309° (NW) 1,380 2.8 -11.9°
Maximum altitude 05:36:58 67° 29° (NNE) 549 1.3 -11.5°
Drops below altitude 10° 05:40:42 10° 114° (ESE) 1,670 5.4 -10.9°
Sets 05:42:49 0° 117° (ESE) 2,529 6.8 -10.6°
